sat.trackr.live / text

‹ back to catalog

STARLINK-35285

NORAD 65807 · 2025-218S

PAYLOAD ACTIVE UNKNOWN

§ Identity

Operator
Country
US
Launch date
2025-09-26
Launch site
AFWTR
Launch vehicle
Mass (kg)
RCS (m²)

Purposes: comms

External: N2YO · Heavens-Above · Gunter

§ Orbital elements

Epoch: 2026-05-25T03:35:08.026080Z

Period
95.64 min
Inclination
97.4485°
Eccentricity
0.0002749
Mean motion
15.05657739 rev/d
Perigee alt
547.6 km
Apogee alt
551.4 km
Semi-major
6,927.6 km
B*
2.3218e-4
RAAN
7.9217°
Arg perigee
70.4161°
Mean anomaly
289.7363°
Rev number
3,647

§ Raw data

STARLINK-352851 65807U 25218S   26145.14939845  .00003294  00000+0  23218-3 0  99912 65807  97.4485   7.9217 0002749  70.4161 289.7363 15.05657739 36478

JSON: /api/v1/satellites/65807 · /tle

For live sub-satellite position, see the globe view (requires WebGL).

§ Visibility from observer

Set your observer location to see the next 7 days of passes ≥ 10°. The values pass through the URL so the page stays shareable.

No JS? Fill the form by hand. The geolocation button needs JavaScript.